Погода в Новоселенгинске

Погода в Новоселенгинске : погода сейчас, прогноз погоды и архив. Всё, что Вы хотите узнать о погоде в Новоселенгинске!

Поиск расширенной информации на нашем сайте:

Другие новости

Новости СМИ2

Главная страница сайта

Новости сайта

03.07.2017

Напоминаем, что на нашем специализированном сайте Метеоцентр.Азия вы можете получить высокодетализированные автоматические прогнозы погоды по пунктам России, СНГ и мира в авиационном формате (включающие направление и скорость ветра, видимость, явления погоды, количество и форму облачности, нижнюю и верхнюю границу облачности).

Рекомендуем: купить хозтовары спб

Погода в Новоселенгинске - сегодня

Время (UTC), дата Ветер
(°,м/с) 
Видим.   Явления Облачность Т
(°С)
Тd
(°С)
f(%) Тe
(°С)
Pmin
(гПа)
dP
(гПа)
Po
(мм)
O2
(г/м3)
Тmin Tmax R s Состояние
почвы
09 20.02.18 300 (СЗ) 20000 м    10/0 верхняя 
[Cs]
-12 -16.9 67 -14  1031.4  -1.1  720  305           
15 20.02.18 270 (З) 50000 м    6/0 верхняя 
[Ci fib]
-16.5 -21 68 -19  1030  -1.6  718  309           
18 20.02.18 290 (З) 50000 м    8/0 верхняя 
[Ci fib]
-18.2 -22.1 71 -21  1029.1  -1.3  717  311           
21 20.02.18 320 (СЗ) 50000 м    8/0 верхняя 
[Ci fib]
-19.4 -23.3 71 -25  1029.9  0.4  717  313           
00 21.02.18 300 (СЗ) 20000 м    10/3 1000 м средняя, верхняя 
[Sc|Ac trans|Ci fib]
-20.1 -23.6 74 -23  1029.6  -0.5  717  313  -21.2      11  равномерный
сухой снег
100% 
03 21.02.18 330 (СЗ) 20000 м    10/0 средняя 
[Ac As]
-17.2 -21.3 70 -17  1028.8  0.1  717  310           
06 21.02.18 230 (ЮЗ) 20000 м    10/0 верхняя 
[Cs]
-8.8 -16.8 52 -9  1024.5  -1.7  716  299           
09 21.02.18 250 (З) 20000 м    10/0 средняя, верхняя 
[Ac lent|Ci fib]
-7.4 -14.3 58 -7  1022.8  -1.3  715  297           
15 21.02.18 250 (З) 50000 м    10/0 средняя 
[Ac As]
-12.4 -16.6 71 -12  1022.7  -1.1  714  302           
18 21.02.18 350 (С) 50000 м    6/0 верхняя 
[Ci fib]
-13.5 -18.5 66 -16  1021.9  -1.1  713  303           
21 21.02.18 300 (СЗ) 50000 м    5/0 верхняя 
[Ci fib]
-21.5 -24.5 77 -22  1023.7  -0.5  712  313           
00 22.02.18 290 (З) 20000 м    8/0 средняя, верхняя 
[Ac trans|Ci fib]
-23.9 -26.4 80 -24  1024.7  0.2  713  316  -24      11  равномерный
сухой снег
100% 
03 22.02.18 220 (ЮЗ) 20000 м    6/1 1000 м верхняя 
[Sc|Ci fib]
-16.8 -20.5 73 -17  1022.4  0.1  712  307  -24.1         
06 22.02.18 040 (СВ) 20000 м    8/3 600 м кучево-дожд., верхняя 
[Cb cap|Ci sp]
-10.9 -15.8 67 -11  1019.8  -0.8  712  300           
09 22.02.18 360 (С) 20000 м    8/3 1000 м верхняя 
[Sc|Ci sp]
-10.4 -18.7 51 -16  1020.7  713  300           
15 22.02.18 230 (ЮЗ) 50000 м    4/0 верхняя 
[Ci fib]
-19.9 -22.5 80 -20  1028  1.9  716  313           
18 22.02.18 250 (З) 50000 м    3/0 верхняя 
[Ci fib]
-22 -24.3 81 -22  1030.7  1.9  717  316           
21 22.02.18 280 (З) 50000 м    3/0 верхняя 
[Ci fib]
-26.6 -29.4 77 -27  1033.2  718  322           
00 23.02.18 300 (СЗ) 20000 м    3/0 верхняя 
[Ci fib]
-28.8 -32 74 -29  1035.6  1.5  719  326  -28.8      11  равномерный
сухой снег
100% 
03 23.02.18 310 (СЗ) 20000 м    8/0 верхняя 
[Ci fib]
-21.7 -24.1 81 -22  1033.9  0.6  719  317  -30.9         
06 23.02.18 350 (С) 20000 м    6/0 средняя, верхняя 
[Ac lent|Ci fib]
-15.3 -20.3 66 -15  1030.4  -1.5  718  308           
09 23.02.18 050 (СВ) 20000 м    8/0 средняя, верхняя 
[Ac lent|Ci fib]
-14.5 -19.8 64 -19  1029.5  -0.6  718  307           
15 23.02.18 360 (С) 50000 м    3/0 верхняя 
[Ci fib]
-22.1 -24.8 79 -22  1033.2  0.5  719  317           
18 23.02.18 тихо ()   50000 м    5/0 верхняя 
[Ci fib]
-23.6 -26.2 79 -24  1033.1  -0.6  718  319           
21 23.02.18 120 (ЮВ) 50000 м    6/0 верхняя 
[Ci fib]
-23.4 -26.4 76 -24  1032.4  -0.6  718  318           
Время (UTC), дата Ветер
(°,м/с) 
Видим.   Явления Облачность Т
(°С)
Тd
(°С)
f(%) Тe
(°С)
Pmin
(гПа)
dP
(гПа)
Po
(мм)
O2
(г/м3)
Тmin Tmax R s Состояние
почвы

Для получения пояснительной информации подведите курсор к названию столбца.

ПОГОДА в Новоселенгинске - архив

Всё, что Вы хотите узнать о погоде в Новоселенгинске - удобно и подробно!

Выберите нужную дату (начиная с 1 января 2015* года) и нажмите кнопку "Найти".
Будут отображены архивные сводки погоды по пункту Новоселенгинск, начиная с указанной даты.


Отображать данные в формате CSV (для использования в таблицах Excel)


Внимание! Наш архив погоды предназначен исключительно для личного некоммерческого использования в познавательных целях. Если Вам необходимы официальные справки о состоянии погоды (для производственных, юридических, коммерческих и т.п. целей), обращайтесь в органы Росгидромета.

*Примечание: данная дата относится к архиву по метеостанциям СССР (Россия, СНГ, Балтия).
Архив по метеостанциям Зарубежной Европы и Азии (кроме Китая) хранится 10 дней, по другим регионам земного шара (Китай, Африка, Америка, Австралия, Океания) - 1 день.

Новоселенгинск - район местоположения метеостанции


Название, широта, долгота, высота метеостанции:
Новоселенгинск 51.1°ш. 106.6°д. 556 м над ур. моря [Российская Федерация]

Дополнительная информация

В oтличие oт бoльшинства пoгoдных сайтoв мы публикуем пoдрoбную метеoинфoрмацию в детальнoм прoфессиoнальнoм фoрмате.

Характеристики температуры и влажнoсти вoздуха измеряются на высoте 2 м в тени вдали oт зданий и деревьев.
Скoрoсть ветра измеряется на высoте 10 м (на урoвне рoста челoвека скoрoсть ветра ниже в 1.5-2 раза). Если метеoстанция нахoдится в гoрoде или в лесу, тo скoрoсть ветра занижена на 2-4 м/с пo сравнению с oткрытым местoм. Скoрoсть ветра над акватoриями крупных рек и oзёр, а также на вершинах хoлмoв на 2-5 м/с выше, чем в oбычных услoвиях.
Атмoсфернoе давление в разных тoчках местнoсти мoжет значительнo oтличаться oт давления на метеoстанции, в зависимoсти oт услoвий рельефа (при пoдъёме на 10 м давление пoнижается примернo на 1 мм рт.ст.).